Theta_e
310 310 311 311 312 314 315 316 317 320 327 336 337 337 335 336 336 338 342 340 338 337 336 334 333 333 333 332 331 325 318 313 313 307 306 305 305 305 305 308 308 308 307
305 305 306 306 307 309 312 314 315 317 319 327 335 339 338 338 339 338 337 337 338 337 336 335 334 333 332 332 330 326 317 316 311 310 310 305 303 303 304 305 305 306 306
303 307 308 308 308 308 309 310 311 314 315 318 325 334 337 340 337 336 335 335 336 338 337 335 335 334 333 331 331 327 318 314 309 311 313 307 307 303 302 302 302 304 304
306 307 308 309 310 311 313 311 310 310 312 314 317 325 329 330 332 333 336 336 335 333 333 334 334 334 333 330 330 326 321 320 309 306 305 304 306 302 298 297 300 300 299
307 308 309 310 312 313 313 313 312 311 310 311 313 317 326 329 330 332 333 335 335 333 330 330 332 331 331 330 328 324 320 320 317 309 304 302 302 299 302 299 294 294 297
308 309 311 311 312 313 313 314 313 313 313 312 311 313 317 325 328 330 331 334 335 331 330 329 329 329 329 327 327 324 320 320 319 312 307 304 303 302 300 301 297 295 292
307 308 308 309 310 311 312 312 312 312 313 312 312 312 312 317 325 327 329 330 330 329 327 327 327 327 328 328 327 323 319 318 317 313 309 307 305 300 300 302 295 292 291
307 308 308 308 309 309 310 310 310 310 311 312 312 313 314 314 314 319 324 326 328 330 330 326 326 326 326 325 324 322 319 317 313 312 311 304 299 296 294 295 292 290 287
307 307 307 307 308 308 308 308 308 309 310 311 313 314 315 315 315 316 316 319 323 325 328 327 324 324 324 322 320 317 315 315 314 314 309 302 296 294 294 294 294 293 285
307 306 306 306 307 308 307 307 308 308 309 310 312 312 314 314 315 316 317 317 318 321 324 323 322 321 319 316 314 312 312 309 307 301 296 292 291 292 291 292 289 291 288
305 304 305 304 307 307 305 305 305 305 306 307 309 311 312 312 312 311 312 313 316 317 318 318 317 314 312 311 309 306 304 302 298 297 294 293 291 289 289 289 290 288 289
304 302 302 302 305 303 303 303 303 303 303 304 306 308 309 310 311 311 311 310 311 312 312 313 311 309 308 307 304 300 300 294 294 291 292 288 289 288 289 289 288 287 288
301 300 300 300 302 300 300 300 301 301 301 301 303 304 304 305 304 303 305 306 305 305 305 305 304 303 302 299 297 295 292 291 290 290 289 288 288 288 288 288 287 286 287
297 297 298 299 299 298 298 297 298 299 299 299 299 299 299 299 298 296 296 295 296 296 297 296 296 295 293 293 292 291 290 290 290 290 290 290 290 288 287 287 286 287 287
295 295 295 296 297 296 296 297 297 298 298 297 296 295 295 294 294 293 293 293 293 293 293 292 292 292 292 292 291 291 291 290 289 289 289 289 289 290 289 288 286 286 286
294 293 292 293 294 295 295 296 296 296 296 296 294 294 293 292 292 292 292 293 293 293 293 293 293 293 293 295 294 291 289 288 287 285 285 286 288 289 290 290 290 289 287
292 291 291 292 293 294 295 295 295 294 295 294 294 294 293 290 290 291 291 291 292 293 293 293 294 294 294 295 294 292 287 285 285 284 284 285 287 286 285 285 286 287 287
292 292 292 292 293 294 295 295 293 294 294 292 292 292 290 289 289 288 288 288 289 289 288 287 288 288 290 292 292 289 285 284 284 284 285 285 285 285 285 285 285 286 286
293 293 292 291 292 293 293 293 292 292 292 291 290 290 290 289 289 287 287 286 286 286 285 286 286 286 287 289 288 286 285 284 285 285 285 284 283 284 286 286 285 285 286
293 293 293 291 292 292 294 292 290 290 289 290 290 290 290 289 288 288 287 286 287 285 286 285 287 288 287 288 287 286 285 284 283 284 283 284 285 286 287 286 285 282 283
293 293 293 292 291 293 293 290 290 289 290 290 290 289 289 288 288 287 287 287 286 286 286 285 286 288 289 288 287 286 285 284 283 283 283 284 285 285 285 285 284 282 283
292 293 292 291 291 292 291 288 288 290 290 289 289 289 289 289 289 287 285 285 285 284 284 283 283 284 286 287 287 287 286 285 283 283 284 284 284 283 282 282 282 283 283
293 293 292 290 290 290 291 288 289 289 289 288 287 286 286 286 286 285 284 284 284 283 283 282 282 281 283 284 285 285 285 285 283 284 283 282 281 280 280 280 281 281 281
292 293 292 291 290 291 290 290 289 288 288 288 286 285 284 284 284 284 284 284 284 283 282 281 281 281 282 284 285 284 284 283 283 282 282 279 279 278 279 279 280 281 281
291 293 293 292 290 290 290 289 287 289 287 285 284 284 284 283 283 283 283 282 282 282 281 281 281 281 282 283 284 283 283 283 282 281 279 278 278 278 279 279 280 280 280
291 291 293 293 292 292 291 290 288 287 285 283 283 283 284 284 285 285 285 286 285 284 284 282 282 283 283 283 282 282 282 281 281 278 276 276 277 277 278 278 278 279 279
Wind_Speed
8 9 9 9 9 10 11 12 12 14 12 10 7 8 9 10 9 11 15 15 14 16 16 13 14 14 13 13 13 12 12 8 7 6 5 5 6 7 7 6 7 8 8
4 4 6 6 6 8 10 11 12 13 12 11 11 12 11 10 12 9 10 12 17 17 16 16 15 16 12 16 15 15 10 9 10 7 5 5 6 7 8 7 8 10 8
6 7 8 7 5 5 5 7 9 11 12 13 11 10 11 8 8 10 10 15 17 16 17 18 15 14 14 12 15 15 16 10 10 12 6 4 7 6 5 9 8 10 8
8 8 8 9 8 7 6 5 5 7 9 11 12 16 13 13 12 12 11 12 13 13 16 15 17 15 12 14 14 13 14 12 11 8 9 4 1 4 4 4 8 8 8
7 8 8 7 7 7 6 6 6 4 4 7 11 11 14 12 10 10 14 15 12 14 13 16 14 14 12 14 16 15 17 14 12 10 6 7 4 3 2 4 5 5 8
8 8 8 7 8 9 8 7 8 6 5 4 6 11 15 14 11 11 10 10 9 9 12 14 14 15 13 15 14 14 16 14 13 10 11 10 8 9 7 7 4 6 5
8 9 10 10 11 12 11 9 9 9 6 5 4 5 8 12 14 13 11 12 9 7 9 13 14 12 16 14 13 14 14 16 14 13 10 7 6 3 4 6 3 3 3
7 8 9 10 10 12 12 12 11 10 8 7 6 5 5 5 7 10 11 10 10 10 12 12 12 14 13 13 12 10 11 13 11 14 12 9 6 4 3 2 6 3 3
6 6 7 8 10 11 12 11 10 10 8 7 6 6 6 6 7 9 9 8 11 10 12 13 11 12 12 10 11 9 11 12 12 12 12 7 2 3 4 4 1 3 5
7 7 7 7 8 8 9 9 9 9 8 7 6 6 6 7 7 8 9 10 11 11 11 11 11 10 9 9 10 8 8 10 6 4 7 6 6 5 3 4 5 5 2
7 8 7 7 7 6 8 8 9 9 9 9 8 7 6 7 6 6 8 9 10 9 9 9 8 8 9 9 9 8 9 9 8 8 10 10 9 7 7 5 5 5 3
6 6 6 7 6 7 8 8 9 9 10 10 8 8 7 7 7 7 7 7 7 6 5 5 6 6 7 7 9 9 8 9 9 8 11 11 8 10 7 6 5 5 3
6 7 6 6 6 6 7 9 9 9 10 9 9 9 9 9 10 9 9 8 7 6 4 1 1 4 5 6 7 7 8 9 11 11 11 11 10 8 5 5 5 4 4
6 7 7 5 6 6 6 7 9 9 8 9 10 11 11 10 9 9 10 9 9 9 7 7 7 6 8 10 11 12 12 12 11 10 11 10 8 8 6 3 5 4 3
5 6 6 5 5 6 6 8 9 8 9 8 9 9 10 10 11 10 10 10 10 9 10 10 10 11 10 8 11 12 12 12 11 10 10 8 10 12 7 3 3 5 4
5 4 3 3 5 6 6 5 6 7 8 8 9 9 9 10 9 9 9 9 9 8 9 10 11 11 8 20 20 15 11 11 10 9 7 6 9 5 6 6 3 4 4
3 2 3 5 5 5 4 6 6 6 7 6 7 9 8 10 9 9 10 10 9 8 9 10 10 11 11 20 22 20 9 9 9 8 6 5 5 4 3 1 3 4 4
1 2 3 3 4 4 5 6 5 6 5 6 7 8 8 9 9 9 9 10 10 10 9 11 11 11 11 20 21 19 10 8 9 6 5 5 4 3 1 3 3 5 5
2 2 3 2 3 5 5 6 6 6 7 7 7 7 7 7 7 8 9 7 8 9 9 9 10 11 11 16 16 10 9 8 8 6 4 3 1 2 4 4 4 6 5
3 2 3 3 2 4 4 6 7 6 8 7 7 7 7 7 8 7 9 7 8 8 7 8 8 13 10 12 10 7 6 6 4 3 2 1 3 3 4 4 5 6 7
3 4 4 4 3 4 5 7 7 7 6 6 7 7 7 8 7 7 7 7 7 7 8 9 8 8 7 9 9 7 4 3 2 1 1 1 4 5 6 7 6 6 8
4 5 5 5 4 5 6 8 6 4 5 6 6 7 7 6 6 8 6 6 7 7 7 7 6 6 7 8 8 8 7 3 2 2 2 2 6 7 7 6 6 7 7
6 6 7 6 5 5 5 5 4 7 7 7 7 7 7 7 6 6 6 5 5 4 4 4 4 4 3 3 6 7 8 7 3 3 3 5 6 6 5 4 5 6 4
8 8 9 8 7 6 6 6 7 7 8 8 7 6 6 6 5 4 3 3 3 3 3 3 3 3 2 3 3 3 2 2 2 1 2 5 5 4 5 4 3 3 4
7 8 9 9 9 8 8 7 7 8 8 8 6 6 5 5 5 5 4 4 4 4 3 3 2 1 1 3 5 5 4 4 5 4 3 3 3 3 2 3 3 4 4
8 8 9 10 10 10 9 8 8 8 8 7 5 4 4 4 4 4 6 9 8 8 7 3 2 1 3 2 4 4 5 5 7 4 4 4 3 3 4 4 4 4 5
Wind_Direction
288 283 285 281 272 261 248 242 241 235 234 222 213 217 215 216 225 234 232 225 221 220 217 221 216 212 212 206 205 204 198 200 189 177 201 208 214 216 213 213 206 197 202
286 325 314 298 276 265 261 252 245 242 236 235 218 225 223 228 230 228 226 228 225 221 217 217 216 213 212 208 205 203 193 199 192 198 191 205 198 220 212 210 212 206 202
53 44 49 43 34 11 308 266 262 254 250 245 245 235 233 230 227 226 225 227 225 222 220 220 220 215 207 211 201 199 195 191 196 205 201 186 226 156 182 212 207 213 209
65 53 44 46 40 28 14 354 291 262 251 246 245 235 231 232 232 236 227 235 222 226 228 222 225 220 213 214 205 196 201 192 192 196 233 247 18 188 179 227 211 209 210
34 30 28 24 25 15 4 5 7 8 293 247 235 243 242 246 244 241 242 239 231 221 221 228 224 224 218 221 210 201 199 202 197 200 168 205 218 225 191 193 186 215 217
26 18 16 6 8 8 360 348 347 356 4 344 257 246 248 245 245 245 248 246 239 234 220 220 217 223 219 216 219 212 211 206 215 201 193 190 192 200 203 233 180 202 184
17 9 6 358 355 348 343 338 331 327 332 334 314 264 258 264 263 260 255 252 249 236 223 220 224 220 222 221 214 211 209 210 210 201 203 203 194 161 183 226 154 169 140
8 1 0 354 350 343 338 330 327 319 320 318 314 301 284 271 268 257 259 260 256 247 243 238 226 226 225 219 216 212 210 208 210 202 206 206 178 156 163 192 148 158 176
4 357 354 357 351 351 350 342 329 324 327 321 312 311 306 294 279 275 267 260 261 257 256 245 229 228 225 214 207 205 206 205 207 209 209 198 151 121 127 150 47 155 169
359 356 356 358 353 354 355 1 360 357 359 354 346 334 332 327 321 309 297 288 279 273 260 252 239 222 205 192 198 202 196 186 184 151 141 101 110 67 76 97 98 63 117
357 355 350 350 355 0 5 4 7 3 1 356 350 347 345 336 327 318 315 310 307 294 277 262 235 208 195 185 182 173 169 168 163 159 149 147 148 122 118 98 101 99 103
2 354 343 351 6 8 9 5 9 5 357 350 346 347 344 344 343 341 334 327 311 304 279 254 215 194 191 179 171 165 167 151 149 135 144 124 125 110 120 104 92 112 103
3 2 358 8 20 19 13 6 6 2 359 360 1 6 1 9 12 6 4 359 357 1 354 316 199 163 159 143 135 126 123 119 122 124 119 111 112 112 105 107 122 122 109
1 7 360 6 34 22 14 5 16 3 4 15 20 16 9 13 24 25 33 39 40 43 43 48 67 73 95 99 99 101 104 101 95 97 98 107 103 109 111 117 117 119 130
359 6 8 2 27 23 4 18 17 3 12 21 33 26 20 25 32 35 36 47 53 59 67 77 79 80 78 84 96 95 96 95 91 82 86 91 112 120 118 139 153 155 196
354 357 12 10 26 19 15 19 13 20 18 20 37 32 36 39 40 40 46 55 61 68 79 79 83 86 91 100 97 92 90 85 87 88 80 84 81 106 169 182 191 203 220
333 357 21 20 17 6 2 35 27 28 34 20 40 54 50 53 47 51 51 48 54 61 69 72 77 87 90 95 93 90 82 85 88 86 90 101 115 115 116 158 262 274 272
323 17 12 17 23 6 44 52 40 46 48 44 48 61 67 69 62 58 54 58 60 59 60 66 65 70 73 84 88 82 79 79 83 91 98 105 111 104 299 286 271 256 250
91 63 41 33 37 31 49 70 63 56 57 52 58 68 73 73 69 64 57 50 65 63 62 59 63 67 70 81 82 85 81 92 93 92 84 85 189 225 253 260 251 272 272
110 130 111 78 60 57 73 91 81 70 62 56 66 62 69 71 70 68 70 64 68 69 69 70 74 84 87 82 81 90 107 106 113 135 132 88 350 330 324 300 285 285 296
129 125 115 96 80 96 99 95 83 65 64 64 71 69 68 77 76 72 77 80 79 82 85 84 77 81 85 89 83 71 75 82 84 65 38 14 344 357 344 328 298 294 301
146 137 128 116 107 101 112 105 87 86 82 80 78 78 78 85 92 99 102 107 108 101 96 97 91 75 66 61 66 62 56 61 34 13 360 2 350 336 324 305 294 291 303
157 146 132 124 113 128 140 124 111 118 112 104 97 101 108 104 108 111 114 110 102 100 95 87 82 77 69 71 54 43 30 39 18 356 20 336 329 325 299 315 323 311 292
167 153 146 142 137 140 132 132 138 132 133 127 115 108 103 100 95 93 86 90 88 88 88 84 81 75 72 49 26 8 8 12 337 253 323 335 320 307 310 298 273 283 294
174 172 165 153 149 153 154 155 150 153 138 127 123 119 114 110 97 70 54 74 56 32 71 71 68 68 85 38 16 356 349 352 3 309 308 310 315 310 297 285 289 296 292
170 179 176 164 162 167 163 158 161 159 148 138 140 137 132 123 112 112 102 73 83 86 87 87 30 103 358 33 6 350 350 336 341 301 311 310 308 303 301 298 298 296 288